QPF
0.02 0.01 0.01 0.01 0.01 0.00 0.00 0.00 0.00 0.00 0.00 0.00 0.00 0.00 0.00 0.00 0.00 0.00 0.00 0.00 0.00 0.00 0.00 0.00 0.00 0.00 0.00 0.00 0.00 0.00 0.00 0.00 0.00 0.00 0.00 0.00 0.00 0.00 0.00 0.00 0.00 0.00 0.00 0.00 0.01 0.00 0.00 0.00 0.00 0.00 0.00 0.00 0.00 0.00
0.01 0.01 0.00 0.00 0.00 0.00 0.00 0.00 0.00 0.00 0.00 0.00 0.00 0.00 0.00 0.00 0.00 0.00 0.00 0.00 0.00 0.00 0.00 0.00 0.00 0.00 0.00 0.00 0.00 0.00 0.00 0.00 0.00 0.00 0.00 0.00 0.00 0.00 0.00 0.01 0.01 0.00 0.00 0.01 0.01 0.01 0.01 0.00 0.00 0.00 0.00 0.00 0.00 0.00
0.02 0.01 0.00 0.00 0.00 0.00 0.00 0.00 0.00 0.00 0.00 0.00 0.00 0.00 0.00 0.00 0.00 0.00 0.00 0.00 0.00 0.00 0.00 0.00 0.00 0.00 0.00 0.00 0.00 0.00 0.00 0.00 0.00 0.00 0.00 0.00 0.00 0.00 0.00 0.00 0.00 0.00 0.00 0.00 0.00 0.00 0.00 0.00 0.00 0.00 0.00 0.00 0.00 0.01
0.01 0.02 0.00 0.00 0.00 0.00 0.00 0.00 0.00 0.00 0.00 0.00 0.00 0.00 0.00 0.00 0.00 0.00 0.01 0.00 0.00 0.00 0.00 0.00 0.00 0.00 0.00 0.00 0.00 0.00 0.00 0.00 0.00 0.00 0.00 0.00 0.00 0.00 0.00 0.00 0.00 0.01 0.01 0.00 0.00 0.00 0.00 0.00 0.00 0.00 0.00 0.00 0.00 0.00
0.01 0.01 0.01 0.00 0.00 0.00 0.00 0.00 0.00 0.01 0.01 0.00 0.00 0.00 0.00 0.00 0.00 0.00 0.01 0.01 0.00 0.00 0.00 0.00 0.00 0.00 0.00 0.00 0.00 0.00 0.00 0.00 0.00 0.00 0.00 0.00 0.00 0.00 0.00 0.00 0.00 0.00 0.00 0.00 0.00 0.00 0.00 0.00 0.00 0.00 0.00 0.00 0.00 0.00
0.01 0.01 0.01 0.01 0.00 0.00 0.01 0.00 0.00 0.01 0.00 0.00 0.00 0.00 0.00 0.00 0.00 0.00 0.00 0.00 0.00 0.00 0.00 0.00 0.00 0.00 0.00 0.00 0.00 0.00 0.00 0.00 0.00 0.00 0.00 0.00 0.00 0.00 0.01 0.00 0.00 0.00 0.00 0.00 0.00 0.00 0.00 0.00 0.00 0.00 0.00 0.00 0.00 0.00
0.00 0.01 0.01 0.01 0.00 0.01 0.01 0.01 0.01 0.00 0.00 0.00 0.00 0.00 0.01 0.00 0.00 0.00 0.00 0.00 0.00 0.00 0.00 0.00 0.00 0.00 0.00 0.00 0.00 0.00 0.00 0.00 0.00 0.01 0.00 0.00 0.00 0.00 0.01 0.00 0.00 0.00 0.00 0.00 0.00 0.00 0.00 0.00 0.00 0.00 0.00 0.00 0.00 0.00
0.01 0.00 0.01 0.01 0.01 0.01 0.01 0.01 0.01 0.01 0.00 0.00 0.00 0.01 0.01 0.01 0.00 0.01 0.00 0.00 0.00 0.00 0.00 0.00 0.00 0.00 0.00 0.00 0.00 0.00 0.00 0.00 0.00 0.00 0.00 0.00 0.01 0.01 0.01 0.00 0.00 0.00 0.00 0.00 0.00 0.00 0.00 0.00 0.00 0.00 0.00 0.00 0.00 0.00
0.00 0.00 0.00 0.01 0.01 0.02 0.01 0.01 0.01 0.01 0.01 0.01 0.01 0.01 0.01 0.00 0.01 0.01 0.00 0.00 0.00 0.00 0.00 0.00 0.00 0.01 0.00 0.01 0.01 0.00 0.00 0.00 0.00 0.00 0.00 0.00 0.01 0.01 0.00 0.00 0.00 0.00 0.00 0.00 0.00 0.00 0.00 0.00 0.00 0.00 0.00 0.00 0.00 0.00
0.00 0.00 0.00 0.01 0.01 0.01 0.01 0.01 0.01 0.01 0.01 0.01 0.00 0.00 0.00 0.00 0.00 0.00 0.00 0.00 0.00 0.00 0.00 0.00 0.00 0.00 0.00 0.02 0.02 0.00 0.00 0.00 0.01 0.00 0.00 0.01 0.01 0.00 0.00 0.00 0.00 0.00 0.00 0.00 0.00 0.00 0.00 0.00 0.00 0.00 0.00 0.00 0.00 0.00
0.00 0.00 0.00 0.01 0.02 0.02 0.02 0.01 0.01 0.01 0.01 0.00 0.00 0.02 0.01 0.00 0.00 0.01 0.00 0.00 0.00 0.00 0.00 0.00 0.00 0.00 0.00 0.00 0.01 0.02 0.01 0.01 0.01 0.02 0.01 0.02 0.01 0.00 0.00 0.00 0.00 0.00 0.00 0.00 0.00 0.00 0.00 0.00 0.00 0.00 0.00 0.00 0.00 0.00
0.00 0.00 0.00 0.01 0.02 0.02 0.02 0.01 0.00 0.00 0.00 0.00 0.01 0.01 0.01 0.01 0.00 0.00 0.01 0.00 0.00 0.00 0.00 0.00 0.00 0.00 0.00 0.00 0.00 0.01 0.01 0.00 0.00 0.02 0.02 0.01 0.00 0.00 0.00 0.00 0.00 0.00 0.00 0.00 0.00 0.00 0.00 0.00 0.00 0.00 0.00 0.00 0.00 0.00
0.00 0.00 0.00 0.01 0.02 0.02 0.02 0.00 0.00 0.00 0.00 0.03 0.03 0.00 0.00 0.00 0.01 0.00 0.00 0.00 0.00 0.00 0.00 0.00 0.00 0.00 0.01 0.01 0.00 0.00 0.00 0.00 0.02 0.04 0.01 0.00 0.00 0.00 0.00 0.00 0.00 0.00 0.00 0.00 0.00 0.00 0.00 0.00 0.00 0.00 0.00 0.00 0.00 0.00
0.00 0.00 0.00 0.01 0.02 0.02 0.01 0.00 0.00 0.02 0.02 0.01 0.00 0.00 0.00 0.01 0.00 0.00 0.00 0.00 0.00 0.00 0.01 0.00 0.00 0.00 0.00 0.00 0.00 0.00 0.00 0.01 0.01 0.00 0.01 0.00 0.00 0.00 0.00 0.00 0.00 0.00 0.00 0.00 0.00 0.00 0.00 0.00 0.00 0.00 0.00 0.00 0.00 0.00
0.00 0.00 0.01 0.03 0.02 0.01 0.01 0.00 0.02 0.02 0.01 0.01 0.00 0.01 0.00 0.00 0.01 0.01 0.01 0.01 0.01 0.02 0.02 0.00 0.00 0.00 0.01 0.01 0.00 0.00 0.01 0.00 0.01 0.01 0.00 0.00 0.00 0.00 0.00 0.00 0.00 0.00 0.00 0.00 0.00 0.00 0.00 0.00 0.00 0.00 0.00 0.00 0.00 0.00
0.02 0.05 0.03 0.03 0.01 0.01 0.01 0.01 0.02 0.00 0.00 0.01 0.00 0.01 0.00 0.01 0.01 0.00 0.00 0.01 0.02 0.03 0.05 0.03 0.01 0.00 0.01 0.00 0.01 0.01 0.02 0.02 0.00 0.00 0.00 0.00 0.00 0.00 0.00 0.00 0.00 0.00 0.00 0.00 0.00 0.00 0.00 0.00 0.00 0.00 0.00 0.00 0.00 0.00
0.04 0.03 0.02 0.03 0.01 0.01 0.01 0.00 0.00 0.00 0.00 0.00 0.00 0.00 0.00 0.01 0.01 0.00 0.00 0.00 0.00 0.02 0.03 0.01 0.01 0.00 0.02 0.02 0.02 0.03 0.02 0.00 0.00 0.00 0.00 0.00 0.00 0.00 0.00 0.00 0.00 0.00 0.00 0.00 0.00 0.00 0.00 0.00 0.00 0.00 0.00 0.00 0.00 0.00
0.03 0.01 0.01 0.02 0.01 0.00 0.00 0.00 0.00 0.00 0.00 0.00 0.00 0.00 0.00 0.00 0.00 0.00 0.00 0.00 0.00 0.00 0.01 0.01 0.02 0.02 0.02 0.01 0.02 0.00 0.00 0.00 0.00 0.00 0.00 0.00 0.00 0.00 0.00 0.00 0.00 0.00 0.00 0.00 0.00 0.00 0.00 0.00 0.00 0.00 0.00 0.00 0.00 0.00
0.02 0.01 0.02 0.01 0.00 0.00 0.00 0.01 0.01 0.01 0.01 0.00 0.00 0.00 0.00 0.00 0.00 0.00 0.00 0.00 0.00 0.00 0.00 0.00 0.01 0.01 0.00 0.00 0.00 0.00 0.00 0.00 0.00 0.00 0.00 0.00 0.00 0.00 0.00 0.00 0.00 0.00 0.00 0.00 0.00 0.00 0.00 0.00 0.00 0.00 0.00 0.00 0.00 0.00
0.01 0.01 0.00 0.00 0.00 0.00 0.00 0.00 0.03 0.01 0.00 0.00 0.00 0.00 0.00 0.00 0.00 0.00 0.00 0.00 0.00 0.00 0.00 0.00 0.00 0.00 0.00 0.00 0.00 0.00 0.00 0.00 0.00 0.00 0.00 0.00 0.00 0.00 0.00 0.00 0.00 0.00 0.00 0.00 0.00 0.00 0.00 0.00 0.00 0.00 0.00 0.00 0.00 0.00
0.01 0.01 0.00 0.01 0.00 0.00 0.00 0.00 0.02 0.01 0.00 0.00 0.00 0.00 0.00 0.00 0.00 0.00 0.00 0.00 0.00 0.00 0.00 0.00 0.00 0.00 0.00 0.00 0.00 0.00 0.00 0.00 0.00 0.00 0.00 0.00 0.00 0.00 0.00 0.00 0.00 0.00 0.00 0.00 0.00 0.00 0.00 0.00 0.00 0.00 0.00 0.00 0.00 0.00
0.00 0.00 0.01 0.01 0.00 0.00 0.00 0.00 0.00 0.00 0.00 0.00 0.00 0.00 0.00 0.00 0.00 0.00 0.00 0.00 0.00 0.00 0.00 0.00 0.00 0.00 0.00 0.00 0.00 0.00 0.00 0.00 0.00 0.00 0.00 0.00 0.00 0.00 0.00 0.00 0.00 0.00 0.00 0.00 0.00 0.00 0.00 0.00 0.00 0.00 0.00 0.00 0.00 0.00
0.00 0.00 0.01 0.00 0.00 0.00 0.00 0.00 0.00 0.00 0.00 0.00 0.00 0.00 0.00 0.00 0.00 0.00 0.00 0.00 0.00 0.00 0.00 0.00 0.00 0.00 0.00 0.00 0.00 0.00 0.00 0.00 0.00 0.00 0.00 0.00 0.00 0.00 0.00 0.00 0.00 0.00 0.00 0.00 0.00 0.00 0.00 0.00 0.00 0.00 0.00 0.00 0.00 0.00
0.00 0.00 0.00 0.00 0.00 0.00 0.00 0.00 0.00 0.00 0.00 0.00 0.00 0.00 0.00 0.00 0.00 0.00 0.00 0.00 0.00 0.00 0.00 0.00 0.00 0.00 0.00 0.00 0.00 0.00 0.00 0.00 0.00 0.00 0.00 0.00 0.00 0.00 0.00 0.00 0.00 0.00 0.00 0.00 0.00 0.00 0.00 0.00 0.00 0.00 0.00 0.00 0.00 0.00
0.00 0.00 0.00 0.00 0.00 0.00 0.00 0.00 0.00 0.00 0.00 0.00 0.00 0.00 0.00 0.00 0.00 0.00 0.00 0.00 0.00 0.00 0.00 0.00 0.00 0.00 0.00 0.00 0.00 0.00 0.00 0.00 0.00 0.00 0.00 0.00 0.00 0.00 0.00 0.00 0.00 0.00 0.00 0.00 0.00 0.00 0.00 0.00 0.00 0.00 0.00 0.00 0.00 0.00
0.00 0.00 0.00 0.00 0.00 0.00 0.00 0.00 0.00 0.00 0.00 0.00 0.00 0.00 0.00 0.00 0.00 0.00 0.00 0.00 0.00 0.00 0.00 0.00 0.00 0.00 0.00 0.00 0.00 0.00 0.00 0.00 0.00 0.00 0.00 0.00 0.00 0.00 0.00 0.00 0.00 0.00 0.00 0.00 0.00 0.00 0.01 0.00 0.00 0.00 0.00 0.00 0.00 0.00
0.00 0.00 0.00 0.00 0.00 0.00 0.00 0.00 0.00 0.00 0.00 0.00 0.00 0.00 0.00 0.00 0.00 0.00 0.00 0.00 0.00 0.00 0.00 0.00 0.00 0.00 0.00 0.00 0.00 0.00 0.00 0.00 0.00 0.00 0.00 0.00 0.00 0.00 0.00 0.00 0.00 0.00 0.00 0.00 0.00 0.00 0.00 0.00 0.00 0.00 0.00 0.00 0.00 0.00
0.00 0.00 0.00 0.00 0.00 0.00 0.00 0.00 0.00 0.00 0.00 0.00 0.00 0.00 0.00 0.00 0.00 0.00 0.00 0.00 0.00 0.00 0.00 0.00 0.00 0.00 0.00 0.00 0.00 0.00 0.00 0.00 0.00 0.00 0.00 0.00 0.00 0.00 0.00 0.00 0.00 0.00 0.00 0.00 0.00 0.00 0.00 0.00 0.00 0.00 0.00 0.00 0.00 0.00
0.00 0.00 0.00 0.00 0.00 0.00 0.00 0.00 0.00 0.00 0.00 0.00 0.00 0.00 0.00 0.00 0.00 0.00 0.00 0.00 0.00 0.00 0.00 0.00 0.00 0.00 0.00 0.00 0.00 0.00 0.00 0.00 0.00 0.00 0.00 0.00 0.00 0.00 0.00 0.00 0.00 0.00 0.00 0.00 0.00 0.00 0.00 0.00 0.00 0.00 0.00 0.00 0.00 0.00
0.00 0.00 0.00 0.00 0.00 0.00 0.00 0.00 0.00 0.00 0.00 0.00 0.00 0.00 0.00 0.00 0.00 0.00 0.00 0.00 0.00 0.00 0.00 0.00 0.00 0.00 0.00 0.00 0.00 0.00 0.00 0.00 0.00 0.00 0.00 0.00 0.00 0.00 0.00 0.00 0.00 0.00 0.00 0.00 0.00 0.00 0.00 0.00 0.00 0.00 0.00 0.00 0.00 0.00
0.00 0.00 0.00 0.00 0.00 0.00 0.00 0.00 0.00 0.00 0.00 0.00 0.00 0.00 0.00 0.00 0.00 0.00 0.00 0.00 0.00 0.00 0.00 0.00 0.00 0.00 0.00 0.00 0.00 0.00 0.00 0.00 0.00 0.00 0.00 0.00 0.00 0.00 0.00 0.00 0.00 0.00 0.00 0.00 0.00 0.00 0.00 0.00 0.00 0.00 0.00 0.00 0.00 0.00
0.00 0.00 0.00 0.00 0.00 0.00 0.00 0.00 0.00 0.00 0.00 0.00 0.00 0.00 0.00 0.00 0.00 0.00 0.00 0.00 0.00 0.00 0.00 0.00 0.00 0.00 0.00 0.00 0.00 0.00 0.00 0.00 0.00 0.00 0.00 0.00 0.00 0.00 0.00 0.00 0.00 0.00 0.00 0.00 0.00 0.00 0.00 0.00 0.00 0.00 0.00 0.00 0.00 0.00
0.00 0.00 0.00 0.00 0.00 0.00 0.00 0.00 0.00 0.00 0.00 0.00 0.00 0.00 0.00 0.00 0.00 0.00 0.00 0.00 0.00 0.00 0.00 0.00 0.00 0.00 0.00 0.00 0.00 0.00 0.00 0.00 0.00 0.00 0.00 0.00 0.00 0.00 0.00 0.00 0.00 0.00 0.00 0.00 0.00 0.00 0.00 0.00 0.00 0.00 0.00 0.00 0.00 0.00
MSLP
1007.33 1008.15 1008.89 1009.70 1010.48 1011.11 1011.82 1012.55 1013.15 1013.70 1014.40 1015.08 1015.51 1015.85 1016.27 1016.44 1016.54 1016.52 1016.91 1016.46 1017.12 1017.45 1017.44 1017.02 1016.86 1017.11 1017.13 1017.68 1018.20 1018.30 1018.43 1018.80 1019.30 1019.88 1020.46 1020.55 1020.06 1019.34 1019.15 1019.00 1019.14 1019.21 1019.25 1018.80 1018.42 1018.66 1018.92 1018.84 1017.60 1017.99 1019.14 1018.56 1018.07 1017.32
1007.60 1008.28 1009.08 1009.92 1010.57 1011.38 1012.14 1012.79 1013.39 1014.06 1014.54 1015.22 1015.82 1016.20 1016.45 1016.87 1016.98 1016.88 1017.48 1017.14 1017.05 1018.00 1018.28 1017.49 1017.44 1017.36 1017.60 1017.85 1018.19 1018.42 1018.88 1018.96 1019.62 1020.61 1021.31 1021.21 1020.75 1020.11 1019.94 1019.71 1019.26 1019.44 1019.79 1019.87 1019.62 1019.58 1019.82 1019.73 1019.54 1019.51 1019.20 1018.80 1018.27 1017.76
1007.70 1008.46 1009.25 1009.97 1010.79 1011.62 1012.32 1013.02 1013.70 1014.35 1014.86 1015.46 1016.12 1016.51 1016.84 1017.09 1017.35 1017.58 1017.88 1017.79 1018.07 1018.66 1018.52 1017.99 1017.48 1017.19 1017.47 1017.79 1018.08 1018.82 1019.23 1019.32 1019.73 1019.95 1020.92 1021.29 1021.13 1020.29 1020.18 1019.55 1019.21 1019.27 1019.49 1019.61 1019.41 1019.69 1019.56 1019.81 1019.79 1019.64 1019.18 1018.72 1018.39 1017.88
1007.78 1008.50 1009.29 1010.05 1010.83 1011.74 1012.56 1013.23 1013.94 1014.56 1015.20 1015.83 1016.42 1016.89 1016.93 1017.56 1017.54 1017.95 1018.41 1018.31 1018.45 1018.71 1018.87 1017.99 1017.07 1017.22 1017.34 1017.64 1018.16 1018.53 1019.13 1019.26 1019.64 1020.06 1020.87 1021.38 1021.20 1020.09 1019.77 1019.32 1019.14 1019.14 1019.25 1019.29 1019.32 1019.44 1019.40 1019.58 1019.76 1019.68 1019.14 1018.58 1018.32 1018.03
1008.04 1008.65 1009.46 1010.24 1011.07 1011.93 1012.70 1013.38 1014.15 1015.03 1015.44 1015.89 1016.82 1017.01 1017.25 1017.78 1018.06 1018.43 1018.80 1018.68 1018.57 1019.11 1019.36 1018.84 1017.86 1017.17 1017.18 1017.64 1018.09 1018.55 1019.13 1019.60 1020.22 1020.68 1021.16 1021.24 1020.28 1019.83 1019.39 1018.80 1018.82 1018.82 1019.13 1019.48 1019.60 1019.97 1020.03 1019.85 1019.47 1019.06 1018.91 1018.76 1018.64 1018.48
1008.17 1008.72 1009.43 1010.20 1011.01 1011.88 1012.63 1013.46 1014.26 1014.88 1015.57 1016.43 1016.70 1017.15 1017.78 1018.09 1018.24 1018.99 1019.20 1018.94 1018.63 1018.94 1019.49 1019.45 1018.29 1017.34 1017.20 1017.72 1018.17 1018.55 1019.00 1019.59 1020.18 1020.74 1020.79 1020.40 1019.50 1019.66 1019.67 1019.10 1018.72 1018.84 1018.99 1019.34 1019.55 1019.39 1019.91 1019.57 1019.13 1018.87 1018.91 1019.04 1019.11 1019.17
1008.45 1008.91 1009.52 1010.31 1011.00 1011.88 1012.72 1013.53 1014.39 1015.22 1015.86 1016.34 1016.92 1017.52 1018.14 1018.31 1018.72 1019.52 1019.62 1019.59 1019.02 1019.32 1019.88 1019.96 1019.11 1017.62 1017.13 1017.67 1018.14 1018.57 1018.82 1019.41 1020.02 1020.43 1020.49 1020.30 1019.68 1019.58 1019.32 1018.86 1018.63 1018.58 1018.71 1019.09 1019.16 1019.09 1019.46 1019.29 1019.46 1019.35 1019.37 1019.62 1019.72 1019.88
1008.83 1009.22 1009.62 1010.20 1011.09 1012.11 1012.92 1013.74 1014.59 1015.30 1016.07 1016.73 1017.27 1017.85 1018.28 1018.73 1019.25 1019.58 1019.58 1019.41 1019.46 1019.85 1020.08 1020.50 1019.92 1018.53 1017.53 1018.15 1018.78 1018.70 1019.44 1019.84 1020.17 1020.28 1020.09 1019.84 1019.29 1019.25 1019.00 1018.58 1018.57 1018.80 1018.75 1019.19 1019.41 1019.45 1019.66 1019.81 1019.95 1020.16 1020.25 1020.46 1020.64 1020.94
1008.96 1009.52 1010.09 1010.48 1011.21 1012.28 1013.03 1013.89 1014.72 1015.57 1016.32 1017.02 1017.66 1018.22 1018.83 1019.21 1019.53 1019.55 1019.44 1019.58 1019.73 1020.50 1020.79 1020.96 1020.24 1018.81 1017.84 1018.39 1019.28 1019.70 1019.75 1020.44 1020.12 1020.23 1019.62 1019.31 1018.84 1018.76 1018.46 1018.82 1018.98 1019.28 1019.64 1019.89 1019.93 1020.13 1020.41 1020.73 1021.03 1021.21 1021.38 1021.63 1021.97 1022.06
1009.15 1009.79 1010.47 1010.79 1011.34 1012.23 1013.08 1014.01 1014.96 1015.90 1016.72 1017.42 1018.11 1018.87 1019.71 1019.65 1019.22 1019.57 1020.04 1020.25 1020.39 1020.59 1020.74 1020.68 1019.72 1018.97 1018.02 1018.42 1019.25 1019.97 1020.21 1020.22 1019.76 1019.14 1018.57 1018.48 1018.66 1018.96 1018.96 1019.22 1019.64 1020.06 1020.40 1020.63 1020.83 1021.32 1021.68 1022.06 1022.40 1022.56 1022.62 1022.89 1023.08 1023.01
1009.54 1010.05 1010.69 1011.35 1012.06 1012.82 1013.45 1014.28 1015.22 1016.25 1017.07 1018.03 1018.63 1018.97 1018.93 1019.04 1019.44 1019.99 1020.61 1020.72 1020.69 1020.75 1020.35 1019.66 1019.26 1018.86 1017.87 1018.47 1019.04 1019.29 1019.69 1019.56 1019.11 1018.23 1018.29 1018.03 1018.58 1019.10 1019.32 1019.89 1020.50 1020.86 1021.20 1021.60 1021.96 1022.47 1022.91 1023.28 1023.49 1023.58 1023.74 1023.94 1024.01 1023.92
1009.84 1010.37 1010.94 1011.67 1012.29 1013.11 1013.74 1014.53 1015.45 1016.25 1017.09 1017.24 1017.67 1018.60 1019.36 1019.66 1020.12 1020.64 1020.52 1020.38 1020.05 1019.37 1018.70 1018.47 1018.26 1018.33 1018.12 1017.78 1018.65 1019.18 1019.43 1019.37 1018.51 1017.91 1017.88 1018.00 1019.14 1019.36 1019.70 1020.61 1021.48 1022.05 1022.25 1022.63 1023.03 1023.57 1024.04 1024.27 1024.59 1024.73 1024.97 1025.03 1025.04 1024.80
1010.02 1010.68 1011.25 1011.85 1012.49 1013.22 1013.98 1014.88 1015.62 1016.20 1016.73 1017.40 1017.70 1018.85 1019.30 1019.96 1020.13 1020.10 1019.61 1019.36 1018.87 1017.89 1017.58 1017.62 1018.30 1018.36 1018.21 1018.37 1019.15 1019.59 1019.58 1018.90 1017.82 1017.95 1018.26 1018.93 1019.38 1019.76 1020.34 1021.28 1022.34 1023.13 1023.47 1023.77 1024.19 1024.68 1025.07 1025.30 1025.47 1025.61 1025.77 1025.75 1025.66 1025.42
1010.21 1010.82 1011.44 1012.07 1012.82 1013.44 1014.22 1015.14 1015.78 1016.48 1017.06 1017.92 1018.52 1019.35 1019.59 1019.55 1019.13 1018.48 1018.09 1017.77 1017.30 1016.91 1017.31 1017.87 1018.67 1018.74 1018.82 1019.10 1019.50 1019.91 1019.33 1018.65 1018.40 1018.62 1019.03 1019.60 1019.96 1020.70 1021.37 1022.03 1022.91 1023.80 1024.37 1024.82 1025.12 1025.50 1025.84 1026.00 1026.05 1026.16 1026.15 1026.00 1026.03 1025.89
1010.40 1011.03 1011.59 1012.24 1012.87 1013.28 1014.38 1015.21 1016.07 1016.72 1017.66 1018.07 1018.40 1018.77 1018.99 1018.41 1017.95 1017.93 1017.63 1017.18 1016.83 1016.71 1017.45 1018.13 1018.64 1019.02 1019.38 1019.53 1019.68 1019.41 1019.31 1019.01 1018.65 1019.06 1019.79 1020.35 1020.75 1021.55 1022.41 1023.14 1023.86 1024.54 1024.98 1025.31 1025.65 1026.00 1026.28 1026.24 1026.26 1026.38 1026.21 1026.19 1025.98 1025.80
1010.49 1011.26 1011.85 1012.29 1013.03 1013.35 1014.55 1015.71 1016.85 1017.88 1018.09 1018.10 1018.41 1018.68 1018.68 1018.54 1018.44 1018.43 1018.23 1017.90 1017.52 1017.19 1017.42 1017.97 1018.73 1019.11 1019.51 1019.31 1019.30 1019.20 1018.95 1018.88 1019.58 1020.04 1020.71 1021.26 1022.01 1022.74 1023.40 1024.00 1024.58 1024.96 1025.30 1025.71 1026.03 1026.19 1026.26 1026.44 1026.57 1026.40 1026.08 1026.16 1025.92 1025.80
1010.55 1010.88 1011.38 1012.41 1013.31 1014.14 1015.24 1016.58 1017.47 1018.23 1018.52 1018.53 1018.69 1018.88 1019.02 1019.12 1018.95 1018.84 1018.64 1018.64 1018.27 1018.11 1018.28 1018.36 1018.58 1018.65 1018.61 1018.79 1018.95 1018.97 1019.60 1019.87 1020.39 1021.27 1021.91 1022.38 1023.01 1023.64 1023.95 1024.45 1024.91 1025.26 1025.62 1025.97 1026.14 1026.24 1026.38 1026.35 1026.25 1026.49 1026.55 1026.37 1025.93 1025.77
1010.27 1010.69 1011.54 1012.48 1013.65 1014.78 1016.19 1016.59 1017.26 1017.90 1018.39 1018.45 1018.79 1019.30 1019.43 1019.59 1019.65 1019.49 1019.52 1019.47 1019.22 1018.93 1018.56 1018.92 1018.80 1018.79 1019.06 1019.27 1019.71 1020.17 1020.66 1021.10 1021.62 1022.25 1022.96 1023.48 1023.93 1024.29 1024.57 1024.92 1025.15 1025.41 1025.73 1026.00 1026.31 1026.22 1026.20 1026.49 1026.69 1026.92 1026.87 1026.36 1026.22 1026.06
1010.02 1010.84 1011.75 1013.03 1013.79 1014.82 1016.14 1017.14 1017.13 1017.48 1017.96 1018.47 1019.01 1019.19 1019.40 1020.11 1020.06 1020.00 1020.06 1019.90 1019.76 1019.69 1019.53 1019.31 1019.38 1019.66 1020.30 1020.62 1020.86 1021.20 1021.51 1021.71 1022.40 1023.21 1023.87 1024.06 1024.36 1024.71 1024.99 1025.15 1025.33 1025.58 1025.65 1025.81 1026.13 1026.33 1026.52 1026.62 1026.87 1026.81 1026.77 1026.65 1026.84 1026.50
1010.57 1011.92 1013.02 1013.31 1013.32 1014.45 1015.85 1016.70 1016.68 1017.32 1018.11 1018.52 1018.74 1019.33 1019.75 1020.05 1020.26 1020.26 1020.24 1020.35 1020.20 1020.02 1020.06 1020.24 1020.69 1021.07 1021.32 1021.77 1021.81 1022.18 1022.44 1022.41 1022.81 1023.61 1024.14 1024.54 1024.72 1025.06 1025.26 1025.45 1025.55 1025.57 1025.72 1025.76 1026.27 1026.40 1026.72 1027.08 1027.01 1027.03 1027.05 1026.90 1026.95 1027.04
1011.69 1012.42 1012.87 1013.24 1014.49 1014.68 1015.72 1016.15 1016.75 1017.31 1018.13 1018.44 1018.84 1019.46 1019.89 1020.26 1020.37 1020.46 1020.55 1020.74 1020.80 1020.70 1020.83 1021.09 1021.67 1022.27 1022.44 1022.60 1022.76 1023.02 1023.23 1023.25 1023.56 1023.89 1024.17 1024.75 1024.92 1025.29 1025.65 1025.72 1025.59 1025.78 1026.22 1026.54 1026.79 1027.10 1027.39 1027.65 1027.41 1027.29 1027.19 1027.08 1027.01 1027.06
1012.34 1013.11 1013.95 1014.41 1015.19 1015.59 1016.12 1016.33 1016.70 1017.16 1017.99 1018.61 1019.12 1019.30 1019.72 1019.95 1019.98 1020.11 1020.43 1020.98 1021.25 1021.50 1021.65 1021.72 1022.28 1022.78 1023.22 1023.64 1023.83 1023.95 1024.02 1024.06 1024.18 1024.43 1024.60 1025.00 1025.50 1025.85 1026.08 1026.39 1026.34 1026.53 1026.80 1027.15 1027.27 1027.48 1027.72 1027.56 1027.53 1027.45 1027.28 1027.17 1026.92 1027.18
1013.23 1013.96 1014.30 1014.82 1015.80 1016.14 1017.02 1016.46 1016.94 1017.54 1017.99 1018.56 1018.92 1019.19 1019.36 1019.71 1020.19 1020.41 1020.86 1021.23 1021.84 1022.03 1022.23 1022.59 1022.87 1023.20 1023.70 1024.18 1024.33 1024.45 1024.42 1024.45 1024.70 1024.95 1025.14 1025.40 1025.69 1025.87 1026.35 1026.54 1026.68 1027.16 1027.24 1027.23 1027.25 1027.46 1027.60 1027.67 1027.61 1027.50 1027.33 1027.16 1027.12 1027.24
1013.43 1014.24 1014.65 1015.18 1015.49 1016.57 1016.98 1017.01 1017.09 1017.42 1017.91 1018.44 1018.81 1018.99 1019.32 1019.81 1020.34 1020.78 1021.00 1021.39 1022.12 1022.42 1022.84 1023.14 1023.35 1023.82 1024.17 1024.49 1024.69 1024.94 1025.10 1024.87 1025.20 1025.49 1025.58 1025.67 1026.08 1026.44 1026.39 1026.74 1027.00 1027.24 1027.39 1027.08 1027.39 1027.53 1027.55 1027.58 1027.59 1027.54 1027.47 1027.35 1027.37 1027.39
1014.08 1015.27 1015.37 1015.74 1015.94 1016.67 1016.85 1016.85 1017.07 1017.45 1017.81 1018.18 1018.58 1019.09 1019.75 1020.02 1020.56 1020.83 1020.81 1021.59 1022.32 1022.72 1023.24 1023.15 1023.32 1023.50 1023.90 1024.48 1024.96 1025.36 1025.32 1025.24 1025.59 1026.08 1026.34 1026.24 1026.43 1026.32 1026.70 1027.15 1027.57 1027.75 1027.61 1027.76 1027.78 1027.63 1027.64 1027.53 1027.58 1027.57 1027.61 1027.65 1027.72 1027.72
1014.45 1015.40 1015.59 1015.38 1015.87 1015.98 1016.31 1016.76 1017.03 1017.27 1017.70 1018.15 1018.58 1019.12 1019.55 1020.25 1020.61 1020.67 1020.94 1021.43 1022.12 1022.63 1023.01 1023.07 1023.31 1023.71 1024.14 1024.49 1025.19 1025.73 1026.09 1025.94 1026.03 1026.54 1027.00 1027.01 1027.20 1027.49 1027.63 1027.74 1028.24 1028.68 1028.23 1028.03 1028.14 1027.95 1027.71 1027.67 1027.66 1027.67 1027.75 1027.90 1027.84 1027.79
1015.21 1015.70 1015.84 1015.82 1015.77 1015.76 1016.29 1016.36 1016.51 1017.25 1017.69 1018.05 1018.62 1019.65 1020.15 1020.63 1020.63 1021.19 1021.46 1021.69 1022.35 1022.84 1023.03 1023.19 1023.40 1024.07 1024.82 1025.43 1025.85 1026.29 1026.33 1026.36 1026.66 1027.09 1027.31 1027.53 1027.79 1027.98 1028.22 1028.65 1028.78 1028.96 1028.59 1028.27 1028.07 1028.12 1028.19 1027.93 1027.82 1027.82 1027.91 1028.00 1028.17 1028.09
1015.66 1015.91 1016.26 1016.43 1016.45 1016.52 1017.00 1017.25 1017.53 1017.71 1018.04 1018.06 1018.95 1020.06 1020.64 1021.01 1021.48 1021.73 1022.11 1022.59 1022.83 1023.34 1023.79 1024.16 1024.37 1024.79 1025.34 1025.86 1026.31 1026.89 1027.12 1027.00 1027.18 1027.44 1027.80 1028.21 1028.47 1028.64 1028.81 1028.96 1028.82 1028.35 1028.63 1028.37 1028.19 1028.01 1027.93 1028.03 1028.21 1028.20 1028.29 1028.31 1028.38 1027.91
1016.22 1016.56 1016.93 1017.56 1017.84 1018.02 1018.20 1018.41 1018.33 1018.71 1019.04 1019.10 1019.63 1020.75 1021.62 1022.18 1022.37 1022.44 1022.85 1023.09 1023.36 1023.88 1024.59 1025.16 1025.73 1025.94 1026.29 1026.59 1026.96 1027.29 1027.60 1027.95 1028.14 1028.42 1028.56 1028.96 1029.37 1029.65 1029.45 1029.47 1029.45 1029.51 1029.23 1028.75 1027.95 1027.94 1027.77 1027.66 1027.69 1027.99 1028.12 1028.42 1028.27 1028.26
1016.44 1016.69 1017.77 1018.47 1018.96 1019.21 1019.56 1019.75 1019.72 1019.90 1020.12 1020.30 1020.86 1021.74 1022.50 1023.03 1023.25 1023.01 1023.29 1023.58 1023.98 1024.43 1024.90 1025.36 1025.86 1026.33 1027.10 1027.46 1028.08 1028.44 1028.67 1028.80 1029.11 1029.22 1029.33 1029.77 1029.93 1029.98 1029.91 1029.95 1029.95 1029.99 1029.88 1029.36 1028.79 1028.38 1028.01 1027.95 1027.59 1027.96 1028.58 1028.85 1029.23 1029.36
1016.41 1017.03 1018.01 1018.84 1019.57 1020.07 1020.28 1020.43 1020.43 1020.44 1020.56 1020.75 1021.01 1021.72 1022.76 1023.49 1023.76 1023.84 1023.64 1023.75 1024.11 1024.45 1025.08 1025.76 1026.04 1026.34 1026.81 1027.59 1028.15 1028.67 1029.47 1029.65 1029.70 1029.82 1029.83 1029.87 1030.06 1030.28 1030.34 1030.36 1030.09 1029.86 1029.94 1029.80 1029.39 1029.16 1029.13 1029.31 1029.41 1029.50 1029.81 1030.15 1030.37 1030.50
1016.92 1017.22 1018.02 1019.21 1020.14 1020.62 1020.82 1020.79 1020.70 1020.82 1020.98 1021.28 1021.83 1022.38 1023.19 1023.69 1024.13 1024.23 1024.14 1024.06 1024.33 1024.95 1025.19 1025.61 1026.48 1027.19 1027.41 1027.80 1028.10 1028.38 1028.74 1029.62 1030.13 1030.60 1030.67 1030.64 1030.85 1030.75 1030.53 1030.01 1029.94 1029.99 1030.43 1030.19 1029.92 1029.82 1029.92 1030.54 1030.59 1030.71 1030.92 1031.17 1031.36 1031.49
1017.00 1017.45 1018.23 1019.07 1019.89 1020.22 1020.38 1020.24 1020.39 1020.79 1021.02 1021.33 1021.72 1022.27 1022.44 1022.69 1023.29 1023.62 1023.52 1023.71 1024.12 1024.50 1025.14 1025.81 1026.48 1026.99 1027.58 1028.04 1028.46 1028.98 1029.57 1030.07 1030.19 1030.18 1030.58 1030.80 1031.00 1030.97 1030.98 1030.97 1030.88 1030.54 1030.73 1030.63 1030.58 1030.59 1030.90 1031.41 1031.52 1031.66 1031.86 1032.04 1032.23 1032.40
Thickness
5353 5354 5357 5358 5359 5362 5363 5364 5365 5368 5369 5371 5376 5381 5385 5391 5396 5403 5404 5412 5409 5405 5411 5419 5421 5416 5410 5399 5387 5392 5385 5378 5368 5367 5363 5377 5377 5382 5380 5395 5377 5375 5357 5371 5378 5346 5364 5373 5390 5379 5368 5371 5375 5381
5345 5347 5349 5349 5352 5353 5355 5357 5359 5361 5365 5367 5370 5375 5383 5384 5389 5397 5395 5403 5407 5399 5399 5409 5408 5408 5404 5398 5389 5387 5386 5389 5365 5355 5357 5357 5369 5369 5379 5369 5391 5361 5377 5376 5380 5380 5369 5367 5367 5365 5364 5368 5372 5377
5338 5339 5341 5343 5344 5345 5347 5349 5351 5353 5358 5362 5364 5370 5375 5380 5384 5386 5390 5394 5394 5386 5388 5396 5400 5405 5401 5397 5393 5377 5377 5383 5379 5379 5357 5360 5366 5377 5355 5373 5382 5385 5380 5370 5378 5373 5372 5366 5364 5364 5367 5371 5373 5380
5332 5333 5334 5336 5338 5338 5340 5342 5345 5347 5351 5355 5359 5363 5373 5372 5379 5380 5381 5387 5388 5387 5374 5397 5406 5401 5398 5394 5389 5385 5380 5379 5378 5373 5359 5354 5360 5385 5379 5384 5382 5382 5383 5381 5376 5375 5375 5369 5365 5363 5369 5376 5377 5379
5325 5327 5327 5328 5330 5330 5333 5337 5339 5339 5346 5352 5352 5359 5366 5367 5371 5373 5374 5380 5384 5380 5377 5375 5392 5400 5397 5392 5386 5381 5376 5373 5363 5353 5345 5349 5371 5376 5379 5390 5388 5385 5376 5362 5369 5365 5364 5365 5367 5373 5372 5373 5373 5374
5321 5323 5325 5325 5326 5328 5329 5331 5333 5336 5342 5343 5350 5353 5356 5361 5367 5364 5361 5375 5379 5379 5366 5362 5387 5396 5395 5388 5382 5377 5371 5366 5359 5355 5352 5364 5379 5375 5365 5374 5389 5379 5376 5370 5366 5372 5362 5366 5374 5375 5372 5369 5367 5364
5316 5320 5321 5322 5323 5324 5326 5326 5328 5331 5335 5340 5343 5347 5349 5355 5359 5355 5362 5365 5372 5372 5362 5361 5367 5389 5394 5387 5379 5373 5370 5363 5355 5349 5346 5358 5365 5371 5361 5376 5381 5386 5380 5373 5374 5375 5370 5373 5366 5368 5367 5362 5359 5356
5308 5314 5318 5320 5320 5320 5320 5322 5323 5325 5329 5333 5336 5339 5344 5348 5350 5352 5357 5362 5364 5364 5364 5348 5355 5373 5388 5373 5367 5369 5359 5353 5350 5348 5352 5358 5370 5369 5373 5384 5384 5380 5380 5371 5370 5369 5365 5364 5362 5358 5356 5351 5348 5343
5301 5308 5312 5316 5317 5315 5317 5318 5320 5322 5324 5326 5329 5333 5338 5340 5340 5348 5354 5356 5358 5356 5348 5337 5342 5367 5382 5373 5363 5359 5357 5342 5352 5336 5352 5366 5367 5368 5381 5377 5373 5370 5366 5363 5365 5361 5357 5353 5349 5347 5344 5338 5332 5329
5294 5300 5305 5310 5313 5314 5314 5314 5314 5316 5318 5321 5324 5323 5322 5330 5341 5345 5344 5344 5345 5349 5352 5349 5360 5353 5377 5365 5365 5346 5354 5356 5352 5363 5371 5366 5363 5368 5369 5368 5362 5359 5357 5354 5350 5345 5341 5337 5333 5332 5330 5325 5321 5319
5285 5292 5298 5301 5303 5306 5309 5310 5310 5310 5312 5313 5314 5317 5327 5331 5334 5332 5328 5340 5338 5345 5347 5353 5358 5352 5374 5356 5351 5361 5350 5347 5359 5371 5369 5373 5374 5362 5366 5362 5353 5350 5347 5343 5339 5333 5329 5324 5320 5318 5316 5313 5310 5309
5276 5284 5290 5293 5296 5299 5304 5306 5309 5310 5310 5315 5319 5319 5319 5321 5322 5327 5332 5334 5345 5357 5361 5355 5362 5360 5362 5372 5353 5351 5355 5353 5363 5372 5376 5378 5359 5362 5363 5352 5340 5334 5335 5332 5328 5321 5316 5314 5309 5308 5303 5301 5299 5299
5267 5274 5282 5287 5290 5294 5300 5302 5301 5302 5306 5306 5310 5306 5310 5314 5320 5316 5317 5337 5340 5363 5368 5363 5350 5357 5355 5361 5345 5338 5357 5353 5375 5358 5376 5361 5354 5360 5354 5342 5329 5322 5319 5318 5314 5309 5304 5302 5299 5297 5294 5291 5289 5289
5260 5267 5274 5280 5284 5289 5293 5294 5294 5296 5299 5296 5302 5302 5309 5304 5321 5339 5345 5351 5356 5358 5358 5355 5342 5342 5341 5339 5335 5348 5348 5352 5344 5353 5366 5349 5351 5343 5334 5331 5322 5314 5310 5304 5303 5301 5295 5292 5290 5286 5281 5279 5276 5277
5252 5260 5267 5274 5280 5287 5288 5288 5288 5292 5292 5293 5301 5296 5306 5322 5331 5334 5340 5349 5358 5357 5354 5346 5340 5337 5332 5333 5335 5348 5341 5357 5355 5357 5345 5340 5336 5329 5320 5316 5310 5306 5298 5296 5295 5286 5282 5280 5279 5277 5275 5273 5270 5265
5245 5251 5261 5270 5276 5284 5282 5280 5279 5279 5285 5295 5300 5304 5314 5315 5325 5329 5335 5342 5343 5343 5346 5349 5337 5334 5324 5349 5345 5341 5346 5349 5349 5340 5331 5327 5319 5313 5308 5304 5298 5294 5293 5288 5282 5281 5278 5274 5269 5272 5270 5267 5260 5258
5240 5254 5264 5268 5273 5274 5273 5272 5272 5273 5280 5287 5289 5296 5299 5311 5319 5322 5326 5328 5328 5331 5339 5342 5346 5338 5341 5336 5343 5340 5333 5337 5329 5320 5315 5314 5308 5301 5301 5297 5288 5289 5287 5281 5276 5273 5272 5272 5265 5262 5257 5254 5253 5255
5245 5255 5262 5266 5266 5266 5263 5268 5271 5275 5282 5285 5288 5295 5290 5294 5303 5309 5309 5311 5319 5320 5333 5337 5337 5343 5334 5341 5336 5328 5321 5316 5312 5309 5302 5299 5297 5293 5292 5289 5286 5281 5279 5272 5270 5268 5266 5260 5257 5249 5247 5243 5242 5240
5251 5257 5262 5263 5267 5266 5263 5263 5272 5276 5278 5279 5281 5286 5291 5285 5290 5294 5299 5303 5308 5311 5318 5328 5334 5324 5317 5318 5317 5313 5310 5309 5303 5293 5285 5285 5286 5281 5282 5279 5278 5275 5269 5266 5262 5257 5253 5253 5245 5239 5236 5233 5228 5224
5256 5258 5260 5265 5272 5270 5266 5266 5274 5277 5271 5275 5282 5285 5289 5290 5285 5287 5296 5299 5304 5311 5318 5324 5305 5302 5304 5298 5296 5296 5293 5293 5296 5288 5285 5280 5276 5276 5270 5268 5264 5263 5264 5260 5254 5248 5243 5237 5233 5229 5226 5222 5220 5216
5255 5259 5265 5270 5265 5269 5265 5269 5270 5271 5270 5277 5280 5278 5287 5281 5286 5289 5293 5291 5298 5304 5303 5295 5293 5285 5285 5284 5284 5280 5278 5283 5278 5279 5282 5271 5269 5268 5262 5258 5260 5255 5249 5242 5237 5230 5227 5220 5217 5219 5215 5212 5211 5209
5255 5258 5259 5261 5259 5264 5266 5270 5270 5273 5271 5270 5276 5287 5287 5289 5292 5293 5291 5291 5293 5285 5288 5290 5285 5279 5276 5271 5269 5269 5268 5272 5271 5269 5268 5265 5258 5253 5247 5243 5244 5241 5230 5225 5223 5218 5212 5210 5208 5207 5204 5201 5201 5197
5254 5254 5259 5261 5256 5259 5259 5268 5268 5274 5269 5274 5284 5288 5285 5283 5278 5286 5284 5284 5280 5280 5282 5277 5274 5273 5268 5264 5263 5261 5262 5266 5260 5258 5256 5251 5248 5246 5238 5232 5227 5220 5215 5212 5212 5206 5201 5199 5195 5191 5191 5191 5188 5185
5257 5257 5256 5258 5264 5257 5261 5265 5279 5284 5284 5281 5283 5289 5289 5282 5284 5280 5291 5285 5272 5272 5269 5265 5268 5265 5263 5261 5259 5256 5253 5255 5252 5249 5246 5247 5238 5230 5227 5220 5214 5209 5205 5206 5198 5193 5187 5184 5182 5179 5176 5176 5170 5168
5257 5255 5262 5258 5270 5261 5266 5278 5283 5285 5282 5288 5293 5283 5273 5280 5277 5286 5297 5276 5268 5269 5263 5265 5267 5266 5263 5256 5250 5246 5247 5248 5244 5236 5229 5227 5225 5225 5218 5210 5200 5193 5190 5183 5180 5181 5173 5168 5168 5162 5159 5153 5153 5152
5270 5261 5269 5277 5274 5281 5285 5287 5287 5289 5290 5288 5289 5285 5278 5278 5287 5286 5284 5272 5269 5267 5259 5260 5259 5258 5257 5253 5246 5240 5233 5235 5233 5224 5215 5213 5207 5200 5198 5197 5187 5174 5173 5169 5163 5160 5163 5155 5150 5148 5146 5140 5137 5135
5269 5269 5276 5283 5290 5297 5292 5294 5298 5293 5287 5288 5285 5274 5274 5275 5286 5270 5269 5269 5265 5261 5259 5258 5258 5252 5244 5238 5233 5229 5226 5224 5219 5212 5206 5201 5195 5190 5182 5170 5163 5160 5159 5155 5148 5144 5140 5140 5135 5131 5129 5127 5121 5118
5274 5276 5267 5279 5282 5288 5287 5288 5285 5285 5287 5292 5286 5280 5280 5273 5268 5263 5258 5258 5257 5254 5249 5246 5245 5241 5236 5229 5224 5219 5213 5210 5207 5202 5196 5189 5183 5177 5170 5163 5156 5150 5142 5137 5131 5126 5121 5118 5115 5116 5111 5109 5106 5107
5269 5272 5271 5264 5266 5268 5271 5274 5278 5267 5265 5270 5281 5265 5249 5250 5250 5253 5251 5250 5248 5245 5239 5234 5228 5226 5222 5218 5213 5209 5205 5201 5196 5192 5180 5181 5165 5158 5155 5148 5139 5132 5126 5121 5118 5114 5111 5107 5104 5101 5100 5098 5097 5096
5264 5269 5257 5251 5248 5252 5248 5248 5254 5252 5253 5253 5250 5248 5243 5240 5241 5244 5243 5241 5239 5235 5230 5228 5222 5218 5210 5206 5198 5194 5191 5187 5181 5175 5172 5164 5155 5149 5141 5132 5123 5117 5113 5108 5104 5102 5101 5099 5099 5095 5091 5086 5082 5078
5265 5262 5254 5250 5244 5242 5242 5242 5244 5247 5249 5252 5252 5247 5239 5233 5233 5234 5239 5239 5236 5232 5227 5219 5221 5216 5213 5205 5194 5185 5177 5175 5172 5168 5163 5157 5149 5140 5130 5120 5114 5108 5103 5098 5095 5091 5086 5085 5084 5080 5075 5071 5068 5066
5256 5259 5249 5238 5232 5233 5233 5235 5239 5240 5242 5242 5238 5235 5229 5226 5220 5222 5228 5229 5225 5221 5221 5217 5212 5203 5201 5194 5188 5184 5180 5171 5164 5158 5152 5146 5138 5129 5120 5112 5106 5101 5096 5092 5088 5084 5079 5074 5070 5065 5062 5059 5057 5054
5248 5246 5238 5232 5227 5231 5233 5241 5242 5239 5240 5240 5231 5229 5230 5236 5228 5228 5229 5228 5224 5222 5218 5212 5206 5200 5194 5187 5181 5174 5169 5163 5157 5150 5143 5136 5128 5119 5110 5103 5098 5093 5088 5083 5079 5075 5071 5067 5062 5058 5055 5051 5047 5044